KQ4KX Weather Reports


time (UTC)temp
C
wind
direction
speed
KPH
gust
KPH
rain 1hr
cm
rain 24hr
cm
rain mn
cm
humidity
%
barometer
mb
20260505235503 26 104 19.3 30.6 0.00 0.00 0.00 67 1014.7
20260505235004 26 102 22.5 32.2 0.00 0.00 0.00 68 1014.6
20260505234503 26 100 24.1 33.8 0.00 0.00 0.00 67 1014.6
20260505234004 26 101 20.9 33.8 0.00 0.00 0.00 67 1014.5
20260505233503 26 102 19.3 27.4 0.00 0.00 0.00 66 1014.5
20260505233005 26 100 20.9 30.6 0.00 0.00 0.00 66 1014.4
20260505232503 27 100 22.5 30.6 0.00 0.00 0.00 65 1014.5
20260505231503 27 100 17.7 29.0 0.00 0.00 0.00 65 1014.6
20260505231005 27 97 16.1 25.7 0.00 0.00 0.00 64 1014.5
20260505230433 27 99 16.1 24.1 0.00 0.00 0.00 63 1014.5
20260505225905 27 100 17.7 24.1 0.00 0.00 0.00 62 1014.5
20260505224303 28 101 14.5 20.9 0.00 0.00 0.00 60 1014.5
20260505223803 28 101 11.3 17.7 0.00 0.00 0.00 60 1014.5
20260505223303 28 106 9.7 17.7 0.00 0.00 0.00 57 1014.6
20260505222733 28 105 9.7 16.1 0.00 0.00 0.00 59 1014.4
20260505222233 28 100 9.7 16.1 0.00 0.00 0.00 58 1014.3
20260505221703 28 100 12.9 17.7 0.00 0.00 0.00 59 1014.3
20260505221203 28 98 11.3 17.7 0.00 0.00 0.00 56 1014.4
20260505220633 28 96 11.3 19.3 0.00 0.00 0.00 58 1014.3
20260505215633 28 100 14.5 20.9 0.00 0.00 0.00 58 1014.5
20260505215133 29 99 16.1 22.5 0.00 0.00 0.00 59 1014.4
20260505214604 29 98 14.5 22.5 0.00 0.00 0.00 56 1014.4
20260505213504 30 108 4.8 9.7 0.00 0.00 0.00 53 1014.4
20260505212933 30 113 4.8 12.9 0.00 0.00 0.00 53 1014.3
20260505212403 30 106 4.8 12.9 0.00 0.00 0.00 53 1014.4
20260505211903 30 100 6.4 17.7 0.00 0.00 0.00 56 1014.4
20260505211335 30 97 9.7 17.7 0.00 0.00 0.00 53 1014.3
20260505210833 30 96 9.7 17.7 0.00 0.00 0.00 54 1014.3
20260505205833 30 100 9.7 17.7 0.00 0.00 0.00 52 1014.4
20260505205305 31 104 6.4 17.7 0.00 0.00 0.00 51 1014.3
20260505204803 31 112 3.2 11.3 0.00 0.00 0.00 52 1014.3
20260505204233 31 107 4.8 11.3 0.00 0.00 0.00 49 1014.4
20260505203733 31 102 6.4 11.3 0.00 0.00 0.00 50 1014.4
20260505203233 31 93 3.2 11.3 0.00 0.00 0.00 52 1014.4
20260505202703 31 66 3.2 6.4 0.00 0.00 0.00 49 1014.5
20260505202203 31 79 3.2 6.4 0.00 0.00 0.00 49 1014.5
20260505201633 31 96 4.8 14.5 0.00 0.00 0.00 49 1014.6
20260505201103 30 94 4.8 14.5 0.00 0.00 0.00 53 1014.7
20260505200033 30 90 6.4 12.9 0.00 0.00 0.00 51 1014.7
20260505194433 31 94 6.4 19.3 0.00 0.00 0.00 51 1014.8
20260505193433 31 101 8.0 16.1 0.00 0.00 0.00 48 1015.0
20260505192903 31 97 6.4 16.1 0.00 0.00 0.00 51 1015.0
20260505191833 31 100 4.8 12.9 0.00 0.00 0.00 52 1015.1
20260505191303 31 103 8.0 16.1 0.00 0.00 0.00 51 1015.2
20260505190803 31 95 8.0 16.1 0.00 0.00 0.00 52 1015.2
20260505190233 31 92 8.0 20.9 0.00 0.00 0.00 51 1015.3
20260505185733 31 94 6.4 20.9 0.00 0.00 0.00 53 1015.3
20260505185203 31 100 6.4 19.3 0.00 0.00 0.00 49 1015.4
20260505184703 31 102 8.0 20.9 0.00 0.00 0.00 53 1015.4
20260505184203 31 91 6.4 20.9 0.00 0.00 0.00 53 1015.5
20260505183703 30 88 4.8 11.3 0.00 0.00 0.00 53 1015.5
20260505183203 30 101 6.4 17.7 0.00 0.00 0.00 54 1015.6
20260505182703 30 96 6.4 17.7 0.00 0.00 0.00 52 1015.7
20260505181603 30 96 6.4 14.5 0.00 0.00 0.00 50 1016.0
20260505181103 30 99 8.0 16.1 0.00 0.00 0.00 51 1016.1
20260505180533 31 104 8.0 16.1 0.00 0.00 0.00 53 1016.0
20260505180033 31 105 8.0 16.1 0.00 0.00 0.00 53 1016.1
20260505174403 30 95 8.0 19.3 0.00 0.00 0.00 55 1016.3
20260505173333 30 118 4.8 12.9 0.00 0.00 0.00 55 1016.4
20260505172803 30 110 4.8 12.9 0.00 0.00 0.00 53 1016.4
20260505172233 30 94 3.2 12.9 0.00 0.00 0.00 55 1016.4
20260505171733 30 99 8.0 17.7 0.00 0.00 0.00 54 1016.5
20260505171233 30 101 11.3 19.3 0.00 0.00 0.00 53 1016.5
20260505170733 30 97 11.3 19.3 0.00 0.00 0.00 54 1016.5
20260505170203 30 93 8.0 16.1 0.00 0.00 0.00 54 1016.5
20260505165703 30 93 6.4 14.5 0.00 0.00 0.00 56 1016.5
20260505165203 30 97 9.7 17.7 0.00 0.00 0.00 53 1016.7
20260505164633 30 100 8.0 19.3 0.00 0.00 0.00 58 1016.7
20260505164135 30 89 6.4 16.1 0.00 0.00 0.00 57 1016.6
20260505163634 29 92 9.7 19.3 0.00 0.00 0.00 57 1016.5
20260505163103 30 100 9.7 19.3 0.00 0.00 0.00 56 1016.5
20260505162603 30 100 8.0 19.3 0.00 0.00 0.00 59 1016.7
20260505162033 28 95 9.7 20.9 0.00 0.00 0.00 59 1016.6
20260505151802 28 103 14.5 22.5 0.00 0.00 0.00 61 1016.6
20260505151303 27 100 14.5 22.5 0.00 0.00 0.00 64 1016.7
20260505150803 27 96 14.5 22.5 0.00 0.00 0.00 67 1016.7
20260505150233 27 95 14.5 24.1 0.00 0.00 0.00 65 1016.6
20260505140402 25 98 16.1 24.1 0.00 0.00 0.00 75 1016.1
20260505130203 23 98 14.5 22.5 0.00 0.00 0.00 81 1016.2
20260505124103 22 96 11.3 17.7 0.00 0.00 0.00 85 1016.3
20260505123533 22 102 11.3 17.7 0.00 0.00 0.00 86 1016.3
20260505123033 22 99 9.7 17.7 0.00 0.00 0.00 86 1016.3
20260505121432 21 99 9.7 14.5 0.00 0.00 0.00 88 1016.3
20260505120933 21 96 9.7 14.5 0.00 0.00 0.00 89 1016.3
20260505120433 21 94 8.0 14.5 0.00 0.00 0.00 89 1016.2
20260505114903 20 87 4.8 11.3 0.00 0.00 0.00 91 1016.0
20260505114403 20 88 4.8 9.7 0.00 0.00 0.00 91 1016.0
20260505113332 20 89 6.4 14.5 0.00 0.00 0.00 92 1015.7
20260505112304 20 91 6.4 14.5 0.00 0.00 0.00 93 1015.5
20260505110703 19 91 4.8 11.3 0.00 0.00 0.00 94 1015.3
20260505110202 19 88 3.2 9.7 0.00 0.00 0.00 94 1015.4
20260505101633 19 88 3.2 9.7 0.00 0.00 0.00 94 1015.0
20260505101134 19 91 3.2 9.7 0.00 0.00 0.00 93 1015.1
20260505095104 19 90 4.8 12.9 0.00 0.00 0.00 93 1014.7
20260505093032 19 91 8.0 12.9 0.00 0.00 0.00 93 1014.6
20260505091433 19 95 8.0 14.5 0.00 0.00 0.00 92 1014.7
20260505090903 19 96 8.0 12.9 0.00 0.00 0.00 92 1014.7
20260505090402 19 92 8.0 12.9 0.00 0.00 0.00 92 1014.5
20260505085903 19 91 6.4 12.9 0.00 0.00 0.00 92 1014.5
20260505085403 20 88 4.8 11.3 0.00 0.00 0.00 92 1014.6
20260505084832 20 88 4.8 11.3 0.00 0.00 0.00 92 1014.6
20260505083832 20 86 4.8 12.9 0.00 0.00 0.00 92 1014.7
20260505082834 20 83 6.4 16.1 0.00 0.00 0.00 91 1014.5
20260505081304 20 80 4.8 11.3 0.00 0.00 0.00 92 1014.5
20260505080233 20 83 3.2 11.3 0.00 0.00 0.00 92 1014.6
20260505075732 20 88 3.2 11.3 0.00 0.00 0.00 91 1014.5
20260505075202 20 88 3.2 11.3 0.00 0.00 0.00 91 1014.7
20260505074633 20 92 4.8 9.7 0.00 0.00 0.00 92 1014.7
20260505074134 20 95 6.4 11.3 0.00 0.00 0.00 91 1014.6
20260505073104 20 90 6.4 12.9 0.00 0.00 0.00 91 1014.7
20260505072533 20 92 6.4 12.9 0.00 0.00 0.00 90 1014.7
20260505072032 20 91 4.8 12.9 0.00 0.00 0.00 90 1014.7
20260505071532 20 87 4.8 11.3 0.00 0.00 0.00 90 1014.6
20260505071002 20 88 6.4 11.3 0.00 0.00 0.00 90 1014.7
20260505070502 20 90 6.4 12.9 0.00 0.00 0.00 89 1014.7
20260505070002 20 87 6.4 12.9 0.00 0.00 0.00 89 1014.7
20260505065502 20 86 6.4 12.9 0.00 0.00 0.00 89 1014.8
20260505064933 20 85 4.8 12.9 0.00 0.00 0.00 89 1014.7
20260505064403 20 81 4.8 11.3 0.00 0.00 0.00 89 1015.0
20260505062332 20 90 8.0 14.5 0.00 0.00 0.00 88 1015.2
20260505061832 20 91 8.0 14.5 0.00 0.00 0.00 87 1015.2
20260505061302 20 90 8.0 14.5 0.00 0.00 0.00 87 1015.3
20260505060232 20 95 9.7 14.5 0.00 0.00 0.00 88 1015.3
20260505055702 20 95 9.7 14.5 0.00 0.00 0.00 88 1015.4
20260505055202 20 94 8.0 14.5 0.00 0.00 0.00 87 1015.6
20260505054633 20 93 6.4 12.9 0.00 0.00 0.00 87 1015.7
20260505054104 20 89 6.4 12.9 0.00 0.00 0.00 87 1015.8
20260505053104 20 93 8.0 14.5 0.00 0.00 0.00 87 1015.8
20260505052532 20 89 6.4 12.9 0.00 0.00 0.00 87 1016.0
20260505052032 20 84 4.8 11.3 0.00 0.00 0.00 86 1016.0
20260505051532 20 89 4.8 12.9 0.00 0.00 0.00 87 1016.2
20260505051002 20 91 6.4 12.9 0.00 0.00 0.00 86 1016.0
20260505050502 21 86 6.4 12.9 0.00 0.00 0.00 86 1016.2
20260505041732 21 88 8.0 16.1 0.00 0.00 0.00 84 1016.4
20260505041202 21 90 9.7 16.1 0.00 0.00 0.00 83 1016.5
20260505040702 21 91 9.7 16.1 0.00 0.00 0.00 84 1016.5
20260505040203 21 90 9.7 17.7 0.00 0.00 0.00 84 1016.3
20260505035702 21 88 9.7 17.7 0.00 0.00 0.00 84 1016.3
20260505034602 21 92 11.3 19.3 0.00 0.00 0.00 84 1016.5
20260505034104 21 92 12.9 20.9 0.00 0.00 0.00 84 1016.5
20260505033602 21 97 12.9 20.9 0.00 0.00 0.00 84 1016.4
20260505033104 21 99 12.9 17.7 0.00 0.00 0.00 83 1016.4
20260505032032 21 99 12.9 20.9 0.00 0.00 0.00 83 1016.4
20260505031502 21 99 14.5 22.5 0.00 0.00 0.00 82 1016.4
20260505031002 21 99 16.1 22.5 0.00 0.00 0.00 82 1016.6
20260505030502 21 102 14.5 22.5 0.00 0.00 0.00 82 1016.5
20260505024903 21 96 12.9 22.5 0.00 0.00 0.00 82 1016.3
20260505023302 21 100 14.5 24.1 0.00 0.00 0.00 81 1016.2
20260505022232 22 97 14.5 20.9 0.00 0.00 0.00 81 1016.2
20260505021732 22 98 14.5 20.9 0.00 0.00 0.00 80 1016.2
20260505021232 22 99 14.5 20.9 0.00 0.00 0.00 81 1016.0
20260505020702 22 100 14.5 22.5 0.00 0.00 0.00 80 1016.1
20260505020132 22 98 14.5 22.5 0.00 0.00 0.00 79 1016.0
20260505015602 22 96 14.5 25.7 0.00 0.00 0.00 79 1016.0
20260505014532 22 96 12.9 22.5 0.00 0.00 0.00 78 1015.9
20260505014002 22 98 14.5 22.5 0.00 0.00 0.00 78 1016.0
20260505013502 22 98 16.1 24.1 0.00 0.00 0.00 78 1016.0
20260505012933 22 96 16.1 24.1 0.00 0.00 0.00 77 1015.8
20260505010902 22 100 17.7 27.4 0.00 0.00 0.00 77 1015.6
20260505010332 22 101 17.7 25.7 0.00 0.00 0.00 77 1015.4
20260505005332 22 95 14.5 22.5 0.00 0.00 0.00 76 1015.5
20260505004803 22 94 14.5 20.9 0.00 0.00 0.00 76 1015.6
20260505004302 23 98 14.5 22.5 0.00 0.00 0.00 75 1015.5
20260505003302 23 104 19.3 29.0 0.00 0.00 0.00 74 1015.5
20260505002732 23 100 19.3 30.6 0.00 0.00 0.00 74 1015.4
20260505002232 23 100 19.3 30.6 0.00 0.00 0.00 74 1015.2
20260505001702 23 102 19.3 29.0 0.00 0.00 0.00 73 1015.2
20260505000632 23 96 16.1 29.0 0.00 0.00 0.00 73 1014.9
20260505000104 23 93 16.1 29.0 0.00 0.00 0.00 72 1014.9